When you browse on this site, cookies collect data to enhance your experience and personalize the content and advertising you see.
Visit our Privacy Policy to learn more. By continuing to use the site, you agree to this use of cookies and data.
  • Em Portugal
  • Lista de países
  • Para 7 dias
  • Temperatura da água
  • Mapa do tempo
  • Widgets de tempo
  • user-avatar
    Iniciar Sessão

    Previsão horária em Lisboa

    Hoje, 31 Março, Terça-feira

    Tempo Temperatura Precipitação Vento Pressão Humidade
    00:00 +8°C° 0 mm 6 m/s 748 mmHg 88%
    01:00 +8°C° 0 mm 6 m/s 748 mmHg 88%
    02:00 +8°C° 0 mm 6 m/s 747 mmHg 88%
    03:00 +7°C° 0 mm 5 m/s 747 mmHg 88%
    04:00 +7°C° 0 mm 5 m/s 747 mmHg 88%
    05:00 +7°C° 0 mm 5 m/s 748 mmHg 84%
    06:00 +7°C° 0.1 mm 5 m/s 748 mmHg 84%
    07:00 +6°C° 0.1 mm 4 m/s 748 mmHg 85%
    08:00 +6°C° 0.1 mm 4 m/s 748 mmHg 85%
    09:00 +7°C° 0.1 mm 4 m/s 748 mmHg 82%
    10:00 +9°C° 0.1 mm 3 m/s 749 mmHg 80%
    11:00 +9°C° 0.1 mm 2 m/s 749 mmHg 78%
    12:00 +10°C° 0 mm 3 m/s 749 mmHg 74%
    13:00 +11°C° 0 mm 4 m/s 749 mmHg 70%
    14:00 +12°C° 0 mm 5 m/s 749 mmHg 67%
    15:00 +10°C° 0 mm 5 m/s 749 mmHg 67%
    16:00 +10°C° 0 mm 6 m/s 750 mmHg 67%
    17:00 +9°C° 0 mm 6 m/s 750 mmHg 68%
    18:00 +8°C° 0 mm 5 m/s 751 mmHg 68%
    19:00 +7°C° 0 mm 4 m/s 752 mmHg 69%
    20:00 +6°C° 0 mm 4 m/s 753 mmHg 69%
    21:00 +7°C° 0 mm 4 m/s 753 mmHg 68%
    22:00 +8°C° 0 mm 3 m/s 753 mmHg 66%
    23:00 +9°C° 0 mm 3 m/s 754 mmHg 64%

    Amanhã, 1 Abril, Quarta-feira

    Tempo Temperatura Precipitação Vento Pressão Humidade
    00:00 +9°C° 0.1 mm 3 m/s 753 mmHg 66%
    01:00 +9°C° 0.1 mm 3 m/s 753 mmHg 67%
    02:00 +9°C° 0.1 mm 3 m/s 753 mmHg 68%
    03:00 +8°C° 0.5 mm 4 m/s 753 mmHg 72%
    04:00 +8°C° 0.5 mm 4 m/s 753 mmHg 76%
    05:00 +8°C° 0.5 mm 4 m/s 753 mmHg 79%
    06:00 +8°C° 0.8 mm 4 m/s 753 mmHg 78%
    07:00 +10°C° 0.8 mm 4 m/s 753 mmHg 76%
    08:00 +10°C° 0.8 mm 4 m/s 753 mmHg 74%
    09:00 +10°C° 0.6 mm 5 m/s 753 mmHg 71%
    10:00 +12°C° 0.6 mm 5 m/s 753 mmHg 68%
    11:00 +13°C° 0.6 mm 5 m/s 753 mmHg 65%
    12:00 +13°C° 0.4 mm 5 m/s 753 mmHg 63%
    13:00 +14°C° 0.4 mm 6 m/s 753 mmHg 60%
    14:00 +14°C° 0.4 mm 6 m/s 752 mmHg 58%
    15:00 +13°C° 0.4 mm 5 m/s 752 mmHg 66%
    16:00 +12°C° 0.4 mm 4 m/s 752 mmHg 73%
    17:00 +11°C° 0.4 mm 4 m/s 752 mmHg 81%
    18:00 +10°C° 0.5 mm 4 m/s 753 mmHg 84%
    19:00 +10°C° 0.5 mm 4 m/s 754 mmHg 87%
    20:00 +8°C° 0.5 mm 4 m/s 754 mmHg 90%
    21:00 +8°C° 0.4 mm 4 m/s 754 mmHg 89%
    22:00 +8°C° 0.4 mm 4 m/s 754 mmHg 88%
    23:00 +8°C° 0.4 mm 4 m/s 754 mmHg 88%

    Depois de amanhã, 2 Abril, Quinta-feira

    Tempo Temperatura Precipitação Vento Pressão Humidade
    00:00 +8°C° 0 mm 5 m/s 754 mmHg 88%
    01:00 +7°C° 0 mm 5 m/s 754 mmHg 88%
    02:00 +7°C° 0 mm 5 m/s 754 mmHg 88%
    03:00 +7°C° 0 mm 4 m/s 754 mmHg 88%
    04:00 +7°C° 0 mm 4 m/s 754 mmHg 87%
    05:00 +7°C° 0 mm 4 m/s 754 mmHg 86%
    06:00 +9°C° 0 mm 3 m/s 754 mmHg 80%
    07:00 +11°C° 0 mm 3 m/s 755 mmHg 73%
    08:00 +12°C° 0 mm 3 m/s 755 mmHg 66%
    09:00 +14°C° 0 mm 3 m/s 755 mmHg 60%
    10:00 +15°C° 0 mm 4 m/s 756 mmHg 55%
    11:00 +17°C° 0 mm 5 m/s 756 mmHg 49%
    12:00 +17°C° 0 mm 5 m/s 756 mmHg 51%
    13:00 +17°C° 0 mm 5 m/s 755 mmHg 53%
    14:00 +19°C° 0 mm 6 m/s 755 mmHg 55%
    15:00 +17°C° 0 mm 6 m/s 755 mmHg 61%
    16:00 +16°C° 0 mm 6 m/s 756 mmHg 67%
    17:00 +15°C° 0 mm 6 m/s 756 mmHg 73%
    18:00 +14°C° 0 mm 5 m/s 756 mmHg 78%
    19:00 +12°C° 0 mm 4 m/s 756 mmHg 84%
    20:00 +11°C° 0 mm 4 m/s 757 mmHg 90%
    21:00 +11°C° 0 mm 3 m/s 757 mmHg 89%
    22:00 +12°C° 0 mm 2 m/s 757 mmHg 88%
    23:00 +12°C° 0 mm 2 m/s 757 mmHg 88%

    3 Abril, Sexta-feira

    Tempo Temperatura Precipitação Vento Pressão Humidade
    00:00 +11°C° 0 mm 1 m/s 756 mmHg 86%
    01:00 +11°C° 0 mm 1 m/s 756 mmHg 85%
    02:00 +11°C° 0 mm 1 m/s 756 mmHg 84%
    03:00 +11°C° 0 mm 1 m/s 756 mmHg 84%
    04:00 +11°C° 0 mm 1 m/s 756 mmHg 85%
    05:00 +10°C° 0 mm 1 m/s 756 mmHg 85%
    06:00 +12°C° 0 mm 1 m/s 756 mmHg 79%
    07:00 +13°C° 0 mm 1 m/s 756 mmHg 73%
    08:00 +15°C° 0 mm 1 m/s 756 mmHg 66%
    09:00 +18°C° 0 mm 1 m/s 756 mmHg 61%
    10:00 +18°C° 0 mm 2 m/s 756 mmHg 56%
    11:00 +20°C° 0 mm 2 m/s 756 mmHg 51%
    12:00 +20°C° 0 mm 2 m/s 756 mmHg 49%
    13:00 +21°C° 0 mm 2 m/s 755 mmHg 48%
    14:00 +21°C° 0 mm 2 m/s 755 mmHg 47%
    15:00 +21°C° 0 mm 2 m/s 755 mmHg 51%
    16:00 +20°C° 0 mm 2 m/s 755 mmHg 56%
    17:00 +19°C° 0 mm 2 m/s 754 mmHg 61%
    18:00 +18°C° 0 mm 1 m/s 755 mmHg 67%
    19:00 +16°C° 0 mm 1 m/s 755 mmHg 73%
    20:00 +14°C° 0 mm 1 m/s 755 mmHg 78%
    21:00 +14°C° 0 mm 1 m/s 755 mmHg 80%
    22:00 +13°C° 0 mm 1 m/s 755 mmHg 81%
    23:00 +13°C° 0 mm 1 m/s 755 mmHg 82%

    4 Abril, Sábado

    Tempo Temperatura Precipitação Vento Pressão Humidade
    00:00 +13°C° 0 mm 1 m/s 754 mmHg 83%
    01:00 +12°C° 0 mm 1 m/s 754 mmHg 84%
    02:00 +12°C° 0 mm 2 m/s 753 mmHg 84%
    03:00 +11°C° 0 mm 3 m/s 753 mmHg 84%
    04:00 +11°C° 0 mm 4 m/s 753 mmHg 84%
    05:00 +10°C° 0 mm 5 m/s 753 mmHg 84%
    06:00 +13°C° 0 mm 6 m/s 753 mmHg 78%
    07:00 +14°C° 0 mm 7 m/s 752 mmHg 72%
    08:00 +15°C° 0 mm 7 m/s 752 mmHg 66%
    09:00 +16°C° 0 mm 7 m/s 752 mmHg 62%
    10:00 +17°C° 0 mm 7 m/s 752 mmHg 58%
    11:00 +18°C° 0 mm 7 m/s 752 mmHg 54%
    12:00 +18°C° 0 mm 8 m/s 752 mmHg 55%
    13:00 +20°C° 0 mm 8 m/s 752 mmHg 56%
    14:00 +19°C° 0 mm 9 m/s 752 mmHg 57%
    15:00 +18°C° 0 mm 9 m/s 751 mmHg 61%
    16:00 +17°C° 0 mm 8 m/s 751 mmHg 66%
    17:00 +16°C° 0 mm 8 m/s 751 mmHg 70%
    18:00 +15°C° 0 mm 9 m/s 751 mmHg 72%
    19:00 +15°C° 0 mm 9 m/s 751 mmHg 74%
    20:00 +14°C° 0 mm 10 m/s 752 mmHg 75%
    21:00 +14°C° 0.1 mm 10 m/s 752 mmHg 75%
    22:00 +14°C° 0.1 mm 10 m/s 752 mmHg 75%
    23:00 +14°C° 0.1 mm 10 m/s 751 mmHg 75%

    5 Abril, Domingo

    Tempo Temperatura Precipitação Vento Pressão Humidade
    00:00 +15°C° 0.4 mm 9 m/s 751 mmHg 80%
    01:00 +15°C° 0.4 mm 9 m/s 751 mmHg 84%
    02:00 +15°C° 0.4 mm 9 m/s 750 mmHg 89%
    03:00 +15°C° 0.5 mm 8 m/s 750 mmHg 89%
    04:00 +15°C° 0.5 mm 7 m/s 750 mmHg 89%
    05:00 +15°C° 0.5 mm 7 m/s 750 mmHg 89%
    06:00 +16°C° 0.9 mm 7 m/s 751 mmHg 84%
    07:00 +17°C° 0.9 mm 7 m/s 751 mmHg 80%
    08:00 +17°C° 0.9 mm 7 m/s 751 mmHg 76%
    09:00 +18°C° 0.3 mm 7 m/s 751 mmHg 72%
    10:00 +20°C° 0.3 mm 7 m/s 752 mmHg 68%
    11:00 +21°C° 0.3 mm 8 m/s 752 mmHg 64%
    12:00 +21°C° 0.1 mm 8 m/s 752 mmHg 65%
    13:00 +20°C° 0.1 mm 8 m/s 752 mmHg 66%
    14:00 +20°C° 0.1 mm 8 m/s 753 mmHg 66%
    15:00 +18°C° 0 mm 7 m/s 753 mmHg 69%
    16:00 +19°C° 0 mm 6 m/s 753 mmHg 72%
    17:00 +17°C° 0 mm 5 m/s 754 mmHg 75%
    18:00 +16°C° 0 mm 5 m/s 754 mmHg 80%
    19:00 +15°C° 0 mm 4 m/s 755 mmHg 85%
    20:00 +14°C° 0 mm 3 m/s 756 mmHg 90%
    21:00 +13°C° 0 mm 3 m/s 756 mmHg 90%
    22:00 +14°C° 0 mm 2 m/s 756 mmHg 91%
    23:00 +14°C° 0 mm 2 m/s 757 mmHg 92%
    Mostrar mais